TimeCST,TemperatureF,Dew PointF,Humidity,Sea Level PressureIn,VisibilityMPH,Wind Direction,Wind SpeedMPH,Gust SpeedMPH,PrecipitationIn,Events,Conditions,WindDirDegrees,DateUTC
12:15 AM,15.6,13.5,91,30.33,10.0,SSW,6.9,-,N/A,,Clear,210,2012-11-27 06:15:00
12:35 AM,15.6,13.3,90,30.32,10.0,SSW,10.4,-,N/A,,Clear,210,2012-11-27 06:35:00
12:55 AM,15.6,13.1,90,30.30,10.0,SSW,6.9,-,N/A,,Clear,210,2012-11-27 06:55:00
1:15 AM,15.6,13.1,90,30.30,10.0,South,5.8,-,N/A,,Clear,190,2012-11-27 07:15:00
1:35 AM,14.9,12.7,91,30.30,10.0,South,6.9,-,N/A,,Clear,190,2012-11-27 07:35:00
1:55 AM,16.2,13.8,90,30.29,10.0,SSW,6.9,-,N/A,,Clear,200,2012-11-27 07:55:00
2:15 AM,18.0,15.8,91,30.28,10.0,SSW,6.9,-,N/A,,Clear,200,2012-11-27 08:15:00
2:35 AM,20.3,18.1,91,30.27,10.0,SSW,9.2,-,N/A,,Clear,210,2012-11-27 08:35:00
2:55 AM,19.8,17.2,90,30.26,10.0,South,6.9,-,N/A,,Clear,190,2012-11-27 08:55:00
3:15 AM,19.4,17.2,91,30.26,10.0,SSW,9.2,-,N/A,,Clear,200,2012-11-27 09:15:00
3:35 AM,19.4,15.8,86,30.25,10.0,SSW,8.1,-,N/A,,Clear,200,2012-11-27 09:35:00
3:55 AM,19.0,16.7,91,30.24,10.0,South,9.2,-,N/A,,Clear,190,2012-11-27 09:55:00
4:15 AM,20.1,17.8,91,30.22,10.0,SSW,10.4,-,N/A,,Clear,200,2012-11-27 10:15:00
4:35 AM,21.2,18.5,89,30.21,10.0,SSW,11.5,-,N/A,,Clear,200,2012-11-27 10:35:00
4:55 AM,21.2,18.7,90,30.20,10.0,South,10.4,-,N/A,,Clear,190,2012-11-27 10:55:00
5:15 AM,20.3,17.8,90,30.19,10.0,South,8.1,-,N/A,,Clear,190,2012-11-27 11:15:00
5:35 AM,20.7,18.1,90,30.19,10.0,South,9.2,-,N/A,,Clear,190,2012-11-27 11:35:00
5:55 AM,20.5,18.0,90,30.19,10.0,South,10.4,-,N/A,,Clear,190,2012-11-27 11:55:00
6:15 AM,21.2,17.6,86,30.17,10.0,South,10.4,-,N/A,,Clear,190,2012-11-27 12:15:00
6:35 AM,21.2,18.5,89,30.16,10.0,South,10.4,-,N/A,,Clear,190,2012-11-27 12:35:00
6:55 AM,21.4,18.7,89,30.15,10.0,South,11.5,-,N/A,,Clear,190,2012-11-27 12:55:00
7:15 AM,21.2,18.5,89,30.14,10.0,South,9.2,-,N/A,,Clear,180,2012-11-27 13:15:00
7:35 AM,21.2,18.5,89,30.13,10.0,South,9.2,-,N/A,,Clear,190,2012-11-27 13:35:00
7:55 AM,22.6,19.6,88,30.14,10.0,SSW,9.2,-,N/A,,Clear,200,2012-11-27 13:55:00
8:15 AM,23.5,20.1,87,30.14,10.0,SSW,9.2,-,N/A,,Clear,210,2012-11-27 14:15:00
8:35 AM,24.4,21.0,87,30.14,10.0,SSW,10.4,-,N/A,,Clear,210,2012-11-27 14:35:00
8:55 AM,26.1,22.3,86,30.14,10.0,SW,12.7,17.3,N/A,,Clear,220,2012-11-27 14:55:00
9:15 AM,26.6,22.6,85,30.14,10.0,SW,15.0,-,N/A,,Clear,220,2012-11-27 15:15:00
9:35 AM,27.9,23.5,84,30.14,10.0,SW,10.4,-,N/A,,Clear,220,2012-11-27 15:35:00
9:55 AM,28.9,23.5,80,30.14,10.0,WSW,13.8,-,N/A,,Clear,240,2012-11-27 15:55:00
10:15 AM,29.5,24.1,80,30.14,10.0,WSW,13.8,-,N/A,,Clear,240,2012-11-27 16:15:00
10:35 AM,30.7,24.8,79,30.14,10.0,WSW,11.5,17.3,N/A,,Clear,250,2012-11-27 16:35:00
10:55 AM,32.0,25.9,78,30.14,10.0,West,10.4,-,N/A,,Clear,260,2012-11-27 16:55:00
11:15 AM,32.5,25.9,76,30.14,10.0,West,13.8,-,N/A,,Clear,260,2012-11-27 17:15:00
11:35 AM,34.2,27.0,75,30.14,10.0,West,8.1,-,N/A,,Clear,280,2012-11-27 17:35:00
11:55 AM,34.9,27.3,74,30.14,10.0,West,10.4,-,N/A,,Clear,280,2012-11-27 17:55:00
12:15 PM,35.1,27.9,75,30.13,10.0,West,10.4,-,N/A,,Clear,280,2012-11-27 18:15:00
12:35 PM,35.6,28.4,75,30.12,10.0,West,9.2,-,N/A,,Clear,270,2012-11-27 18:35:00
12:55 PM,36.7,29.1,74,30.12,10.0,West,10.4,-,N/A,,Clear,260,2012-11-27 18:55:00
1:15 PM,37.6,29.7,73,30.13,10.0,West,9.2,-,N/A,,Clear,280,2012-11-27 19:15:00
1:35 PM,38.3,30.4,73,30.13,10.0,West,9.2,-,N/A,,Clear,270,2012-11-27 19:35:00
1:55 PM,37.8,29.3,72,30.12,10.0,West,8.1,-,N/A,,Clear,270,2012-11-27 19:55:00
2:15 PM,39.0,29.3,68,30.12,10.0,WNW,9.2,-,N/A,,Clear,290,2012-11-27 20:15:00
2:35 PM,37.8,29.7,73,30.12,10.0,West,9.2,-,N/A,,Clear,270,2012-11-27 20:35:00
2:55 PM,37.9,30.0,73,30.13,10.0,West,8.1,-,N/A,,Clear,270,2012-11-27 20:55:00
3:15 PM,37.8,30.0,74,30.13,10.0,West,5.8,-,N/A,,Clear,280,2012-11-27 21:15:00
3:35 PM,37.6,30.7,76,30.14,10.0,West,4.6,-,N/A,,Clear,280,2012-11-27 21:35:00
3:55 PM,39.4,31.1,72,30.14,10.0,West,4.6,-,N/A,,Clear,270,2012-11-27 21:55:00
4:15 PM,39.2,30.6,71,30.16,10.0,West,3.5,-,N/A,,Clear,280,2012-11-27 22:15:00
4:35 PM,37.2,30.0,75,30.16,10.0,West,4.6,-,N/A,,Clear,270,2012-11-27 22:35:00
4:55 PM,36.0,30.0,79,30.17,10.0,West,4.6,-,N/A,,Clear,280,2012-11-27 22:55:00
5:15 PM,34.7,29.7,82,30.17,10.0,West,5.8,-,N/A,,Clear,270,2012-11-27 23:15:00
5:35 PM,33.8,30.2,87,30.18,10.0,West,5.8,-,N/A,,Clear,270,2012-11-27 23:35:00
5:55 PM,32.0,28.0,85,30.19,10.0,West,6.9,-,N/A,,Clear,280,2012-11-27 23:55:00
6:15 PM,32.0,28.4,87,30.20,10.0,West,6.9,-,N/A,,Clear,280,2012-11-28 00:15:00
6:35 PM,31.6,28.0,87,30.21,10.0,West,5.8,-,N/A,,Clear,270,2012-11-28 00:35:00
6:55 PM,30.6,27.3,88,30.21,10.0,West,6.9,-,N/A,,Clear,270,2012-11-28 00:55:00
7:15 PM,30.6,27.3,88,30.21,10.0,West,6.9,-,N/A,,Clear,280,2012-11-28 01:15:00
7:35 PM,30.0,26.8,88,30.22,10.0,West,5.8,-,N/A,,Clear,280,2012-11-28 01:35:00
7:55 PM,30.0,26.6,87,30.24,10.0,NW,4.6,-,N/A,,Clear,310,2012-11-28 01:55:00
8:15 PM,30.2,26.6,86,30.24,10.0,NW,3.5,-,N/A,,Clear,320,2012-11-28 02:15:00
8:35 PM,29.7,26.1,86,30.24,10.0,NNW,3.5,-,N/A,,Clear,330,2012-11-28 02:35:00
8:55 PM,29.1,25.7,87,30.24,10.0,NW,5.8,-,N/A,,Clear,320,2012-11-28 02:55:00
9:15 PM,29.8,25.3,83,30.25,10.0,NW,4.6,-,N/A,,Clear,310,2012-11-28 03:15:00
9:35 PM,29.5,24.8,83,30.25,10.0,NW,4.6,-,N/A,,Clear,310,2012-11-28 03:35:00
9:55 PM,28.0,23.9,84,30.26,10.0,WNW,3.5,-,N/A,,Clear,290,2012-11-28 03:55:00
10:15 PM,27.7,23.5,84,30.26,10.0,NW,3.5,-,N/A,,Clear,310,2012-11-28 04:15:00
10:35 PM,28.0,23.0,81,30.26,10.0,NNW,4.6,-,N/A,,Clear,330,2012-11-28 04:35:00
10:55 PM,26.1,21.7,84,30.27,10.0,NNW,4.6,-,N/A,,Clear,330,2012-11-28 04:55:00
11:15 PM,26.2,21.6,82,30.27,10.0,NW,3.5,-,N/A,,Clear,310,2012-11-28 05:15:00
11:35 PM,24.8,20.5,84,30.27,10.0,Calm,Calm,-,N/A,,Clear,0,2012-11-28 05:35:00
11:55 PM,23.4,20.1,87,30.27,10.0,WSW,3.5,-,N/A,,Clear,250,2012-11-28 05:55:00